sat.trackr.live / text

‹ back to catalog

STARLINK-2292

NORAD 48023 · 2021-024AY

PAYLOAD ACTIVE UNKNOWN

§ Identity

Operator
Country
US
Launch date
2021-03-24
Launch site
AFETR
Launch vehicle
Mass (kg)
RCS (m²)

Purposes: comms

External: N2YO · Heavens-Above · Gunter

§ Orbital elements

Epoch: 2026-09-15T03:37:53.541696Z

Period
92.75 min
Inclination
53.1123°
Eccentricity
0.0001562
Mean motion
15.52515962 rev/d
Perigee alt
408.3 km
Apogee alt
410.4 km
Semi-major
6,787.5 km
B*
1.1814e-3
RAAN
154.5277°
Arg perigee
181.2509°
Mean anomaly
178.8498°
Rev number
30,386

§ Raw data

STARLINK-22921 48023U 21024AY  26258.15131414  .00073888  00000+0  11814-2 0  99992 48023  53.1123 154.5277 0001562 181.2509 178.8498 15.52515962303861

JSON: /api/v1/satellites/48023 · /tle

For live sub-satellite position, see the globe view (requires WebGL).

§ Visibility from observer

Set your observer location to see the next 7 days of passes ≥ 10°. The values pass through the URL so the page stays shareable.

No JS? Fill the form by hand. The geolocation button needs JavaScript.